KF4UQS-14 Weather Reports


Display with metric or nautical units.
time (UTC)temp
F
wind
direction
speed
MPH
gust
MPH
rain 1hr
in
rain 24hr
in
rain mn
in
humidity
%
barometer
mb
20260503225252 63 336 2.0 3.0 0.00 0.00 0.00 34 1016.4
20260503224749 63 357 2.0 2.0 0.00 0.00 0.00 33 1016.2
20260503224247 63 312 4.0 4.0 0.00 0.00 0.00 32 1016.5
20260503223745 63 336 2.0 3.0 0.00 0.00 0.00 32 1016.3
20260503223242 63 296 3.0 3.0 0.00 0.00 0.00 32 1016.4
20260503222738 63 322 4.0 4.0 0.00 0.00 0.00 33 1016.5
20260503222236 63 332 5.0 7.0 0.00 0.00 0.00 32 1016.2
20260503221734 64 294 6.0 8.0 0.00 0.00 0.00 32 1016.1
20260503221232 64 303 6.0 8.0 0.00 0.00 0.00 31 1016.1
20260503220728 64 46 2.0 2.0 0.00 0.00 0.00 32 1016.1
20260503220225 64 290 6.0 8.0 0.00 0.00 0.00 32 1016.2
20260503215722 64 348 2.0 2.0 0.00 0.00 0.00 34 1016.1
20260503215219 64 357 3.0 3.0 0.00 0.00 0.00 32 1016.1
20260503214717 65 254 6.0 9.0 0.00 0.00 0.00 31 1016.2
20260503214213 64 306 5.0 6.0 0.00 0.00 0.00 32 1016.2
20260503213711 64 347 6.0 7.0 0.00 0.00 0.00 32 1016.2
20260503213208 64 344 4.0 4.0 0.00 0.00 0.00 31 1016.1
20260503212705 63 8 4.0 6.0 0.00 0.00 0.00 31 1016.2
20260503212203 63 347 6.0 7.0 0.00 0.00 0.00 31 1016.2
20260503211701 64 349 3.0 3.0 0.00 0.00 0.00 32 1016.1
20260503211156 64 307 10.0 13.0 0.00 0.00 0.00 32 1015.9
20260503210652 63 332 4.0 4.0 0.00 0.00 0.00 32 1016.1
20260503210149 63 338 6.0 8.0 0.00 0.00 0.00 31 1016.1
20260503205644 64 311 6.0 8.0 0.00 0.00 0.00 31 1016.1
20260503205141 64 332 3.0 3.0 0.00 0.00 0.00 34 1016.0
20260503204638 65 180 6.0 10.0 0.00 0.00 0.00 35 1016.1
20260503204135 63 320 5.0 6.0 0.00 0.00 0.00 33 1016.0
20260503203632 64 310 6.0 8.0 0.00 0.00 0.00 34 1016.0
20260503203130 63 6 6.0 7.0 0.00 0.00 0.00 32 1016.1
20260503202627 64 347 6.0 7.0 0.00 0.00 0.00 33 1016.1
20260503202125 63 192 1.0 2.0 0.00 0.00 0.00 35 1016.2
20260503201623 63 295 5.0 6.0 0.00 0.00 0.00 33 1016.4
20260503201119 63 353 11.0 13.0 0.00 0.00 0.00 33 1016.2
20260503200616 63 258 5.0 7.0 0.00 0.00 0.00 34 1016.3
20260503200112 62 332 6.0 8.0 0.00 0.00 0.00 35 1016.2
20260503195609 64 46 5.0 7.0 0.00 0.00 0.00 33 1016.4
20260503195106 63 4 2.0 2.0 0.00 0.00 0.00 33 1016.5
20260503194603 63 338 8.0 9.0 0.00 0.00 0.00 34 1016.5
20260503194058 63 12 2.0 3.0 0.00 0.00 0.00 36 1016.4
20260503193555 64 324 6.0 8.0 0.00 0.00 0.00 35 1016.5
20260503193050 63 345 12.0 15.0 0.00 0.00 0.00 34 1016.3
20260503192546 63 287 10.0 13.0 0.00 0.00 0.00 35 1016.7
20260503192043 63 196 4.0 4.0 0.00 0.00 0.00 39 1016.9
20260503191539 63 300 9.0 10.0 0.00 0.00 0.00 36 1016.8
20260503191036 62 354 8.0 9.0 0.00 0.00 0.00 36 1016.6
20260503190533 62 255 5.0 8.0 0.00 0.00 0.00 37 1016.9
20260503190031 61 278 9.0 13.0 0.00 0.00 0.00 36 1016.8
20260503185527 62 338 9.0 11.0 0.00 0.00 0.00 36 1017.0
20260503185026 62 30 6.0 9.0 0.00 0.00 0.00 35 1017.0
20260503184523 61 312 9.0 10.0 0.00 0.00 0.00 36 1017.2
20260503184019 61 338 5.0 9.0 0.00 0.00 0.00 36 1017.1
20260503183516 61 355 12.0 16.0 0.00 0.00 0.00 35 1017.0
20260503183013 61 3 19.0 24.0 0.00 0.00 0.00 36 1017.0
20260503182512 61 34 3.0 4.0 0.00 0.00 0.00 39 1017.2
20260503182009 61 2 6.0 7.0 0.00 0.00 0.00 37 1017.2
20260503181506 60 294 6.0 7.0 0.00 0.00 0.00 38 1017.2
20260503181002 61 300 5.0 6.0 0.00 0.00 0.00 39 1017.1
20260503180500 60 346 9.0 10.0 0.00 0.00 0.00 37 1017.3
20260503175956 60 345 7.0 8.0 0.00 0.00 0.00 38 1017.2
20260503175455 60 346 12.0 14.0 0.00 0.00 0.00 37 1017.2
20260503174951 60 353 6.0 9.0 0.00 0.00 0.00 39 1017.1
20260503174449 60 356 3.0 4.0 0.00 0.00 0.00 37 1017.3
20260503173944 59 331 8.0 13.0 0.00 0.00 0.00 39 1017.4
20260503173440 59 232 6.0 8.0 0.00 0.00 0.00 40 1017.5
20260503172937 59 336 10.0 13.0 0.00 0.00 0.00 40 1017.4
20260503172435 60 359 10.0 16.0 0.00 0.00 0.00 39 1017.5
20260503171931 59 344 7.0 9.0 0.00 0.00 0.00 39 1017.4
20260503171428 59 301 7.0 8.0 0.00 0.00 0.00 40 1017.5
20260503170926 59 338 8.0 9.0 0.00 0.00 0.00 40 1017.5
20260503170421 59 297 6.0 8.0 0.00 0.00 0.00 42 1017.7
20260503150814 56 357 15.0 18.0 0.00 0.00 0.00 41 1018.0
20260503150309 55 32 11.0 13.0 0.00 0.00 0.00 44 1018.1
20260503140234 54 344 8.0 9.0 0.00 0.00 0.00 47 1017.8
20260503131204 53 8 11.0 14.0 0.00 0.00 0.00 51 1017.5
20260503130701 53 352 6.0 8.0 0.00 0.00 0.00 49 1017.6
20260503130159 53 9 7.0 8.0 0.00 0.00 0.00 50 1017.5
20260503120124 52 0 5.0 6.0 0.00 0.00 0.00 54 1016.9
20260503110551 51 353 9.0 11.0 0.00 0.00 0.00 60 1016.1
20260503090437 48 336 3.0 3.0 0.00 0.00 0.00 82 1014.4
20260503081404 48 335 2.0 3.0 0.00 0.00 0.00 83 1013.6
20260503080901 48 51 0.0 1.0 0.00 0.00 0.00 82 1013.7
20260503080358 48 29 1.0 2.0 0.00 0.00 0.00 81 1013.4
20260503072834 49 349 2.0 2.0 0.00 0.00 0.00 79 1013.0
20260503072331 49 315 3.0 4.0 0.00 0.00 0.00 80 1013.0
20260503071827 49 348 4.0 4.0 0.00 0.00 0.00 79 1012.9
20260503071325 49 331 4.0 4.0 0.00 0.00 0.00 79 1012.9
20260503070821 49 324 3.0 3.0 0.00 0.00 0.00 79 1013.0
20260503070319 49 352 3.0 3.0 0.00 0.00 0.00 80 1013.0
20260503060244 49 6 2.0 2.0 0.00 0.00 0.00 82 1012.5
20260503054731 50 46 0.0 0.0 0.00 0.00 0.00 80 1012.3
20260503054228 50 10 1.0 1.0 0.00 0.00 0.00 80 1012.3
20260503053726 50 9 1.0 2.0 0.00 0.00 0.00 79 1012.3
20260503053225 51 347 2.0 2.0 0.00 0.00 0.00 78 1012.3
20260503052721 51 334 2.0 2.0 0.00 0.00 0.00 76 1012.7
20260503052218 51 359 2.0 3.0 0.00 0.00 0.00 76 1012.5
20260503051713 51 325 2.0 2.0 0.00 0.00 0.00 76 1012.6
20260503051211 52 338 2.0 2.0 0.00 0.00 0.00 76 1012.5
20260503050708 52 352 2.0 2.0 0.00 0.00 0.00 75 1012.6
20260503050204 52 354 1.0 1.0 0.00 0.00 0.00 75 1012.7
20260503045702 52 347 3.0 3.0 0.00 0.00 0.00 75 1012.6
20260503045159 52 352 2.0 3.0 0.00 0.00 0.00 75 1012.5
20260503044655 52 342 2.0 2.0 0.00 0.00 0.00 75 1012.7
20260503044152 52 334 2.0 2.0 0.00 0.00 0.00 79 1012.5
20260503043649 52 352 1.0 2.0 0.00 0.00 0.00 74 1012.7
20260503043146 53 355 2.0 2.0 0.00 0.00 0.00 74 1012.6
20260503042642 53 30 1.0 1.0 0.00 0.00 0.00 74 1012.6
20260503042138 53 344 2.0 2.0 0.00 0.00 0.00 73 1012.8
20260503041634 53 334 3.0 3.0 0.00 0.00 0.00 73 1012.5
20260503041133 53 12 3.0 3.0 0.00 0.00 0.00 73 1012.5
20260503040630 53 332 3.0 4.0 0.00 0.00 0.00 75 1012.5
20260503040128 53 351 3.0 3.0 0.00 0.00 0.00 74 1012.6
20260503035624 53 349 2.0 3.0 0.00 0.14 0.14 74 1012.5
20260503035122 52 0 1.0 2.0 0.00 0.14 0.14 76 1012.5
20260503034618 53 34 1.0 1.0 0.00 0.14 0.14 76 1012.3
20260503034116 53 24 1.0 2.0 0.00 0.14 0.14 73 1012.6
20260503033613 53 16 1.0 1.0 0.00 0.14 0.14 72 1012.5
20260503033110 53 358 1.0 1.0 0.00 0.14 0.14 73 1012.4
20260503032609 53 329 2.0 2.0 0.00 0.14 0.14 74 1012.8
20260503032107 53 330 3.0 4.0 0.00 0.14 0.14 74 1012.4
20260503031604 53 326 2.0 2.0 0.00 0.14 0.14 74 1012.3
20260503031102 53 20 1.0 2.0 0.00 0.14 0.14 75 1012.4
20260503030557 53 18 1.0 1.0 0.00 0.14 0.14 75 1012.5
20260503030054 53 17 1.0 1.0 0.00 0.14 0.14 75 1012.3
20260503025551 53 359 1.0 2.0 0.00 0.14 0.14 75 1012.3
20260503025049 53 25 2.0 2.0 0.00 0.14 0.14 74 1012.4
20260503024544 53 343 1.0 2.0 0.00 0.14 0.14 74 1012.7
20260503024042 53 31 1.0 1.0 0.00 0.14 0.14 73 1012.7
20260503023538 53 3 2.0 2.0 0.00 0.14 0.14 72 1012.6
20260503023036 53 4 1.0 2.0 0.00 0.14 0.14 72 1012.6
20260503022532 53 10 1.0 2.0 0.00 0.14 0.14 73 1012.5
20260503022027 53 350 2.0 2.0 0.00 0.14 0.14 73 1012.7
20260503021525 53 354 2.0 2.0 0.00 0.14 0.14 72 1012.7
20260503021021 53 349 2.0 2.0 0.00 0.14 0.14 72 1012.5
20260503020519 53 0 2.0 2.0 0.00 0.14 0.14 72 1012.7
20260503020015 53 354 2.0 2.0 0.00 0.14 0.14 72 1012.6
20260503015512 53 351 3.0 3.0 0.00 0.14 0.14 72 1012.7
20260503015009 52 2 2.0 2.0 0.00 0.14 0.14 78 1012.4
20260503014505 52 72 0.0 0.0 0.00 0.14 0.14 82 1012.3
20260503014003 51 42 0.0 1.0 0.00 0.14 0.14 81 1012.4
20260503013500 51 59 0.0 0.0 0.00 0.14 0.14 81 1012.3
20260503012957 51 66 0.0 0.0 0.00 0.14 0.14 81 1012.3
20260503012455 52 79 0.0 0.0 0.00 0.14 0.14 80 1012.0
20260503011950 53 70 0.0 1.0 0.00 0.14 0.14 77 1012.1
20260503011447 53 59 0.0 0.0 0.00 0.14 0.14 74 1012.1
20260503010945 53 7 1.0 1.0 0.00 0.14 0.14 72 1012.3
20260503010442 54 353 1.0 2.0 0.00 0.14 0.14 71 1012.2
20260503005939 54 18 2.0 2.0 0.00 0.14 0.14 68 1012.1
20260503005436 54 31 3.0 3.0 0.00 0.14 0.14 69 1012.1
20260503004933 54 23 3.0 3.0 0.00 0.14 0.14 69 1012.2
20260503004430 54 343 3.0 3.0 0.00 0.14 0.14 67 1012.2
20260503003927 54 12 2.0 2.0 0.00 0.14 0.14 67 1012.0
20260503003424 54 20 3.0 4.0 0.00 0.14 0.14 66 1012.1
20260503002921 54 358 4.0 4.0 0.00 0.14 0.14 64 1012.0
20260503002418 54 1 4.0 4.0 0.00 0.14 0.14 63 1011.8
20260503001914 54 1 4.0 4.0 0.00 0.14 0.14 63 1011.8
20260503001411 55 358 4.0 4.0 0.00 0.14 0.14 62 1011.7
20260503000909 55 3 5.0 7.0 0.00 0.14 0.14 61 1011.6
20260503000407 55 9 8.0 9.0 0.00 0.14 0.14 60 1011.7
20260502235902 55 41 6.0 8.0 0.00 0.14 0.14 60 1011.6
20260502235359 55 7 8.0 9.0 0.00 0.14 0.14 59 1011.5
20260502234856 55 351 8.0 10.0 0.00 0.14 0.14 60 1011.4
20260502234347 55 33 5.0 7.0 0.00 0.14 0.14 61 1011.3
20260502233844 55 18 5.0 8.0 0.00 0.14 0.14 61 1011.4
20260502233339 55 16 7.0 8.0 0.00 0.14 0.14 61 1011.2
20260502232837 55 3 6.0 8.0 0.00 0.14 0.14 63 1011.1
20260502232333 55 52 3.0 4.0 0.00 0.14 0.14 62 1011.3
20260502231830 55 14 5.0 7.0 0.00 0.14 0.14 63 1011.4
20260502231328 55 9 8.0 9.0 0.00 0.14 0.14 61 1011.3
20260502230826 55 14 6.0 8.0 0.00 0.14 0.14 61 1011.4
20260502230323 55 36 6.0 7.0 0.00 0.14 0.14 62 1011.1
20260502225820 55 24 6.0 7.0 0.00 0.14 0.14 62 1011.3